Home > Weather > Brno > Past weeks

Flag for Czech Republic Weather for the Past 2 Weeks in Brno, Czech Republic

Now
65 °F

Sunny.


Feels Like: 65 °F
Forecast: 48 / 68 °F
Wind: 5 mph from East

Location: Brno / Turany

Current Time: May 6, 2016 at 11:59:01 AM

Latest Report: May 6, 2016 at 11:00 AM


Visibility: 19 mi

Pressure: 30.14 "Hg

Humidity: 54%

Dew Point: 48 °F

Location of BrnoLocation

Historic Weather in Brno — Graph

°F

Brno Temperature Yesterday

Maximum temperature yesterday: 67 °F (at 4:00 PM)
Minimum temperature yesterday: 49 °F (at 6:00 AM)
Average temperature yesterday: 57 °F

High & Low Weather Summary for the Past Weeks

 TemperatureHumidityPressure
High67 °F (May 5, 4:00 PM)96% (May 3, 11:00 AM)30.35 "Hg (May 3, 11:00 AM)
Low30 °F (Apr 28, 2:00 AM)23% (Apr 22, 3:00 PM)29.61 "Hg (Apr 26, 4:00 PM)
Average51 °F61%30.00 "Hg
* Reported Apr 21 10:00 AM — May 6 10:00 AM, Brno, Weather by CustomWeather, © 2016

Note: Actual official high and low records may vary slightly from our data, if they occured in-between our weather recording intervals... More about our weather records

Advertising

Brno Weather History for the Previous 24 Hours

Scroll right to see more
 ConditionsComfort  
Time TempWeatherWind HumidityBarometerVisibility
10:00 AM
Fri, May 6
62 °FSunny.7 mph54%30.15 "Hg19 mi
9:00 AM59 °FSunny.7 mph60%30.16 "Hg19 mi
8:00 AM54 °FSunny.3 mph68%30.18 "Hg19 mi
7:00 AM50 °FSunny.1 mph79%30.19 "Hg19 mi
6:00 AM46 °FPassing clouds.2 mph83%30.18 "Hg19 mi
5:00 AM48 °FPassing clouds.2 mph80%30.17 "Hg16 mi
4:00 AM46 °FPassing clouds.1 mph82%30.19 "Hg19 mi
3:00 AM51 °FPassing clouds.2 mph74%30.19 "Hg19 mi
2:00 AM53 °FPassing clouds.5 mph71%30.20 "Hg22 mi
1:00 AM53 °FPassing clouds.2 mph73%30.21 "Hg22 mi
12:00 AM55 °FPassing clouds.1 mph67%30.22 "Hg22 mi
11:00 PM
Thu, May 5
56 °FPassing clouds.3 mph64%30.22 "Hg25 mi
10:00 PM58 °FPassing clouds.1 mph60%30.21 "Hg25 mi
9:00 PM59 °FPassing clouds.1 mph56%30.20 "Hg25 mi
8:00 PM63 °FOvercast.3 mph50%30.19 "Hg25 mi
7:00 PM64 °FOvercast.6 mph54%30.19 "Hg25 mi
6:00 PM65 °FOvercast.8 mph51%30.19 "Hg25 mi
5:00 PM65 °FPartly sunny.8 mph50%30.19 "Hg25 mi
4:00 PM67 °FPartly sunny.7 mph47%30.19 "Hg22 mi
3:00 PM65 °FPartly sunny.6 mph52%30.21 "Hg19 mi
2:00 PM64 °FScattered clouds.5 mph56%30.23 "Hg16 mi
1:00 PM64 °FPartly sunny.7 mph54%30.24 "Hg16 mi
12:00 PM62 °FPartly sunny.6 mph63%30.25 "Hg12 mi
11:00 AM60 °FScattered clouds.5 mph63%30.27 "Hg12 mi
Weather by CustomWeather, © 2016

See weather overviewHow to use our weather pages